Albion Park Observation History
Time Wind Speed Temp Pressure Rel. Hum Rain
03/02:30pm W 4-7 kts 25.1°c 1006.5 hPa 65% 0.0mm
03/02:00pm N 3-4 kts 24.0°c 1007.1 hPa 66% 0.0mm
03/01:30pm NNE 5-6 kts 23.8°c 1007.5 hPa 65% 0.0mm
03/01:00pm NNW 8-11 kts 24.2°c 1008.0 hPa 67% 0.0mm
03/12:30pm NNE 5-7 kts 23.8°c 1008.5 hPa 70% 0.0mm
03/12:00pm NNE 5-6 kts 24.0°c 1009.1 hPa 68% 0.0mm
03/11:30am NE 5-7 kts 24.0°c 1009.2 hPa 68% 0.0mm
03/11:00am NNW 6-8 kts 24.6°c 1009.2 hPa 64% 0.0mm
03/10:30am NNW 6-9 kts 24.2°c 1009.4 hPa 65% 0.0mm
03/10:00am NNE 2-5 kts 23.5°c 1009.8 hPa 69% 0.0mm
03/09:30am NNW 3-4 kts 22.6°c 1009.9 hPa 74% 0.0mm
03/09:00am W 4-5 kts 20.2°c 1009.9 hPa 88% 4.2mm
03/08:30am W 5-6 kts 18.8°c 1009.9 hPa 96% 4.2mm
03/08:00am W 6-8 kts 17.7°c 1009.6 hPa 99% 4.2mm
03/07:30am W 5-8 kts 16.9°c 1009.6 hPa 100% 4.2mm
03/07:00am NW 3-5 kts 16.4°c 1009.4 hPa 100% 4.2mm
03/06:30am WNW 6 kts 16.1°c 1009.6 hPa 100% 4.2mm
03/06:00am WNW 3-4 kts 14.9°c 1009.1 hPa 100% 4.2mm
03/05:30am CALM 0-3 kts 14.9°c 1008.7 hPa 100% 4.0mm
03/05:00am WNW 5-7 kts 15.0°c 1008.7 hPa 99% 4.0mm
03/04:30am WNW 4-6 kts 15.2°c 1008.3 hPa 99% 4.0mm
03/04:00am WNW 2-5 kts 15.7°c 1008.5 hPa 99% 4.0mm
03/03:30am SSW 5-6 kts 16.0°c 1008.7 hPa 99% 4.0mm
03/03:00am WNW 4-7 kts 16.5°c 1008.9 hPa 98% 4.0mm
03/02:30am WSW 4-7 kts 16.8°c 1009.1 hPa 99% 4.0mm
03/02:00am WSW 5-6 kts 17.0°c 1009.1 hPa 98% 4.0mm
03/01:30am - 2-4 kts 18.1°c 1009.0 hPa 91% 4.0mm
03/01:00am NW 4-7 kts 17.7°c 1009.0 hPa 98% 4.0mm
03/12:30am W 3-4 kts 17.5°c 1009.5 hPa 97% 4.0mm
03/12:00am N 6-9 kts 20.2°c 1009.6 hPa 91% 4.0mm
Time Wind Speed Temp Pressure Rel. Hum Rain
02/11:30pm N 6-8 kts 19.8°c 1009.7 hPa 93% 4.0mm
02/11:00pm N 7-10 kts 20.5°c 1009.9 hPa 87% 4.0mm
02/10:30pm E 4-5 kts 19.6°c 1009.9 hPa 94% 4.0mm
02/10:24pm NNE 4-5 kts 19.9°c 1010.1 hPa 93% 4.0mm
02/10:00pm N 4-7 kts 20.7°c 1010.3 hPa 91% 4.0mm
02/09:30pm NW 5-7 kts 20.3°c 1010.3 hPa 96% 4.0mm
02/09:04pm N 4-6 kts 20.4°c 1009.9 hPa 95% 4.0mm
02/09:00pm N 4-6 kts 20.4°c 1009.9 hPa 95% 4.0mm
02/08:30pm NNW 3-4 kts 20.1°c 1009.7 hPa 95% 4.0mm
02/08:08pm N 4-5 kts 20.7°c 1009.7 hPa 93% 4.0mm
02/08:00pm N 4-5 kts 21.0°c 1009.8 hPa 90% 4.0mm
02/07:30pm NE 7-9 kts 20.9°c 1010.0 hPa 93% 4.0mm
02/07:28pm NE 7-9 kts 20.9°c 1009.9 hPa 94% 4.0mm
02/07:00pm ENE 7-9 kts 20.7°c 1010.0 hPa 96% 4.0mm
02/06:30pm N 7-9 kts 21.0°c 1009.7 hPa 92% 4.0mm
02/06:01pm NNE 5-7 kts 20.8°c 1009.8 hPa 97% 4.0mm
02/06:00pm NNE 5-7 kts 20.8°c 1009.8 hPa 97% 4.0mm
02/05:45pm NNE 6-8 kts 20.8°c 1009.9 hPa 98% 4.0mm
02/05:43pm NNE 6-8 kts 20.8°c 1009.9 hPa 99% 4.0mm
02/05:30pm NNE 6-9 kts 20.8°c 1009.9 hPa 99% 4.0mm
02/05:00pm NNE 8-10 kts 20.9°c 1009.8 hPa 97% 3.8mm
02/04:33pm NNE 6-8 kts 20.9°c 1010.1 hPa 97% 3.6mm
02/04:30pm NNE 6-8 kts 20.9°c 1010.1 hPa 96% 3.6mm
02/04:00pm NNE 6-8 kts 20.9°c 1010.3 hPa 97% 3.6mm
02/03:30pm NE 6-8 kts 20.8°c 1010.4 hPa 98% 3.2mm
02/03:03pm NNE 6-7 kts 20.9°c 1010.9 hPa 97% 1.8mm
02/03:00pm NNE 6-7 kts 20.9°c 1011.0 hPa 97% 1.8mm
02/02:52pm N 6-8 kts 21.1°c 1011.1 hPa 96% 1.4mm
02/02:30pm NNE 8-10 kts 21.6°c 1011.3 hPa 93% 0.6mm
02/02:00pm NE 8-11 kts 22.3°c 1011.5 hPa 86% 0.0mm
02/01:30pm NE 7-10 kts 22.4°c 1011.9 hPa 84% 0.0mm
02/01:00pm NE 8-10 kts 23.2°c 1012.0 hPa 78% 0.0mm
02/12:30pm NE 7-11 kts 23.2°c 1012.6 hPa 77% 0.0mm
02/12:00pm NE 8-10 kts 23.5°c 1013.0 hPa 76% 0.0mm
02/11:30am NE 6-8 kts 23.6°c 1013.5 hPa 79% 0.0mm
02/11:00am NNE 7-8 kts 22.6°c 1013.9 hPa 80% 0.0mm
02/10:30am NNE 4-6 kts 23.0°c 1014.3 hPa 83% 0.0mm
02/10:00am NNW 4-5 kts 21.7°c 1014.7 hPa 85% 0.0mm
02/09:30am W 3-5 kts 20.3°c 1014.9 hPa 98% 0.0mm
02/09:00am SSE 1-3 kts 19.5°c 1015.0 hPa 100% 15.6mm
02/08:30am NW 2-4 kts 19.0°c 1015.1 hPa 100% 15.6mm
02/08:00am CALM 0 kts 17.2°c 1015.2 hPa 100% 15.6mm
02/07:30am SW 2-4 kts 16.6°c 1015.1 hPa 100% 15.6mm
02/07:00am CALM 0-4 kts 16.5°c 1015.1 hPa 100% 15.6mm
02/06:30am WSW 2-4 kts 16.8°c 1015.2 hPa 100% 15.6mm
02/06:00am CALM 0 kts 17.1°c 1015.2 hPa 100% 15.6mm
02/05:30am CALM 0 kts 17.7°c 1015.1 hPa 100% 15.6mm
02/05:00am W 3-5 kts 17.3°c 1015.3 hPa 100% 15.6mm
02/04:30am CALM 0 kts 17.4°c 1015.4 hPa 100% 15.6mm
02/04:16am CALM 0 kts 17.7°c 1015.6 hPa 100% 15.6mm
02/04:00am CALM 0 kts 17.7°c 1015.7 hPa 100% 15.6mm
02/03:33am SW 1-4 kts 18.1°c 1015.8 hPa 100% 15.6mm
02/03:30am SW 1-4 kts 18.2°c 1015.8 hPa 100% 15.6mm
02/03:00am NW 3-5 kts 18.5°c 1016.2 hPa 100% 15.6mm
02/02:52am CALM 0 kts 18.6°c 1016.3 hPa 100% 15.6mm
02/02:30am NW 1-4 kts 18.6°c 1016.5 hPa 100% 15.6mm
02/02:00am NW 3-4 kts 19.4°c 1016.9 hPa 100% 15.6mm
02/01:30am NW 3-4 kts 19.5°c 1017.2 hPa 99% 15.6mm
02/01:04am N 3-5 kts 20.5°c 1017.3 hPa 98% 15.6mm
02/01:00am N 5-9 kts 20.9°c 1017.3 hPa 98% 15.6mm
02/12:30am N 6-8 kts 21.0°c 1017.5 hPa 99% 15.6mm
02/12:00am NW 3-5 kts 20.2°c 1017.8 hPa 100% 15.6mm
Time Wind Speed Temp Pressure Rel. Hum Rain
01/11:30pm SSE 1-4 kts 20.2°c 1018.2 hPa 100% 15.6mm
01/11:00pm CALM 0 kts 19.9°c 1018.4 hPa 100% 15.4mm
01/10:48pm SSE 3-4 kts 19.9°c 1018.5 hPa 100% 15.4mm
01/10:43pm SSW 2-4 kts 19.9°c 1018.5 hPa 100% 15.4mm
01/10:42pm SW 2-4 kts 19.9°c 1018.5 hPa 100% 15.4mm
01/10:36pm CALM 0 kts 19.9°c 1018.6 hPa 100% 15.2mm
01/10:30pm CALM 0 kts 19.9°c 1018.7 hPa 100% 15.0mm
01/10:00pm WNW 4-6 kts 19.9°c 1018.7 hPa 100% 15.0mm
01/09:30pm WNW 4-5 kts 19.8°c 1018.6 hPa 100% 15.0mm
01/09:23pm WSW 3-5 kts 19.9°c 1018.7 hPa 100% 15.0mm
01/09:20pm W 3-5 kts 19.8°c 1018.7 hPa 100% 15.0mm
01/09:00pm WNW 4-5 kts 19.9°c 1018.7 hPa 100% 14.6mm
01/08:30pm WSW 3-5 kts 19.6°c 1018.6 hPa 100% 14.6mm
01/08:10pm WNW 6-7 kts 19.7°c 1018.4 hPa 100% 14.6mm
01/08:00pm W 6-7 kts 19.5°c 1018.2 hPa 100% 14.6mm
01/07:30pm CALM 0 kts 19.7°c 1017.9 hPa 99% 14.6mm
01/07:21pm CALM 0 kts 19.8°c 1017.6 hPa 99% 14.6mm
01/07:00pm SSW 1-4 kts 20.0°c 1018.1 hPa 99% 14.6mm
01/06:30pm S 2-3 kts 20.1°c 1018.2 hPa 98% 14.6mm
01/06:00pm SSW 3-4 kts 20.1°c 1017.9 hPa 97% 14.6mm
01/05:57pm SSW 3-4 kts 20.4°c 1017.9 hPa 97% 14.6mm
01/05:30pm WSW 3-4 kts 20.1°c 1018.1 hPa 97% 14.6mm
01/05:15pm NW 4-5 kts 19.9°c 1018.3 hPa 97% 14.6mm
01/05:00pm NNE 4-6 kts 20.0°c 1018.2 hPa 97% 14.6mm
01/04:53pm NNW 3-5 kts 20.3°c 1018.2 hPa 96% 14.4mm
01/04:30pm NNW 2-5 kts 20.0°c 1018.1 hPa 97% 14.2mm
01/04:00pm NNE 5-9 kts 19.8°c 1018.3 hPa 100% 14.2mm
01/03:59pm NNE 5-9 kts 19.7°c 1018.4 hPa 100% 14.2mm
01/03:30pm N 5-6 kts 19.6°c 1018.5 hPa 100% 13.4mm
01/03:00pm NNW 6-11 kts 19.7°c 1018.4 hPa 99% 5.2mm
01/02:41pm WNW 7-11 kts 20.5°c 1018.1 hPa 96% 0.8mm
01/02:30pm NW 7-9 kts 21.0°c 1018.2 hPa 92% 0.4mm
01/02:25pm N 6-9 kts 21.1°c 1018.3 hPa 92% 0.4mm
01/02:14pm NE 5-7 kts 21.6°c 1018.3 hPa 92% 0.4mm
01/02:02pm ENE 8-11 kts 21.5°c 1018.3 hPa 88% 0.2mm
01/02:00pm ENE 8-11 kts 21.7°c 1018.3 hPa 88% 0.0mm
01/01:30pm ENE 12-15 kts 23.1°c 1018.6 hPa 83% 0.0mm
01/01:00pm NE 11-14 kts 24.8°c 1018.9 hPa 82% 0.0mm
01/12:30pm NE 8-11 kts 23.2°c 1019.3 hPa 85% 0.0mm
01/12:23pm NE 8-13 kts 22.9°c 1019.3 hPa 84% 0.0mm
01/12:00pm NE 6-10 kts 22.9°c 1019.6 hPa 86% 0.0mm
01/11:30am NE 3-5 kts 22.7°c 1019.9 hPa 88% 0.0mm
01/11:26am ENE 3-5 kts 22.7°c 1020.0 hPa 88% 0.0mm
01/11:00am NE 4-6 kts 22.9°c 1020.2 hPa 86% 0.0mm
01/10:51am ENE 5-6 kts 22.6°c 1020.3 hPa 89% 0.0mm
01/10:30am N 5-6 kts 22.4°c 1020.4 hPa 91% 0.0mm
01/10:13am WNW 1-3 kts 21.6°c 1020.4 hPa 95% 0.0mm
01/10:10am WNW 1-3 kts 21.4°c 1020.4 hPa 95% 0.0mm
01/10:00am W 1-3 kts 21.2°c 1020.3 hPa 96% 0.0mm
01/09:58am WNW 2-3 kts 21.1°c 1020.4 hPa 96% 0.0mm
01/09:30am CALM 0-3 kts 20.5°c 1020.3 hPa 100% 0.0mm
01/09:00am CALM 0 kts 20.0°c 1020.2 hPa 100% 23.6mm
01/08:30am W 3-4 kts 19.9°c 1019.9 hPa 100% 23.6mm
01/08:09am WSW 3-5 kts 19.6°c 1019.6 hPa 100% 23.6mm
01/08:00am SW 5-6 kts 19.5°c 1019.5 hPa 100% 23.6mm
01/07:30am SW 3-5 kts 19.5°c 1019.4 hPa 100% 23.6mm
01/07:00am SSE 3-6 kts 19.3°c 1019.1 hPa 100% 23.6mm
01/06:30am SW 4-6 kts 19.5°c 1019.0 hPa 100% 23.0mm
01/06:21am WNW 3-4 kts 19.5°c 1019.0 hPa 100% 23.0mm
01/06:10am CALM 0-3 kts 19.5°c 1018.9 hPa 100% 22.8mm
01/06:00am WNW 3-4 kts 19.5°c 1018.8 hPa 100% 22.8mm
01/05:37am SW 2-4 kts 19.5°c 1018.7 hPa 100% 21.2mm
01/05:30am WSW 5-7 kts 19.5°c 1018.7 hPa 100% 20.6mm
01/05:00am W 3-5 kts 19.6°c 1018.6 hPa 100% 19.0mm
01/04:30am W 6-11 kts 19.6°c 1018.4 hPa 100% 13.2mm
01/04:00am W 9-11 kts 19.5°c 1018.4 hPa 100% 3.2mm
01/03:50am WNW 7-9 kts 19.6°c 1018.3 hPa 100% 1.2mm
01/03:37am WSW 5-8 kts 19.6°c 1018.3 hPa 100% 1.0mm
01/03:30am SW 6-7 kts 19.7°c 1018.4 hPa 100% 0.8mm
01/03:19am W 6-7 kts 19.7°c 1018.4 hPa 100% 0.6mm
01/03:14am WNW 5-6 kts 19.8°c 1018.5 hPa 100% 0.4mm
01/03:00am WNW 5-8 kts 19.9°c 1018.6 hPa 100% 0.2mm
01/02:30am WSW 5-7 kts 20.0°c 1018.8 hPa 99% 0.0mm
01/02:00am W 3-5 kts 20.1°c 1018.9 hPa 99% 0.0mm
01/01:30am WNW 4-5 kts 20.1°c 1019.0 hPa 98% 0.0mm
01/01:00am E 4-6 kts 20.9°c 1018.9 hPa 91% 0.0mm
01/12:49am E 5-7 kts 20.9°c 1018.9 hPa 91% 0.0mm
01/12:30am E 5-7 kts 20.8°c 1019.0 hPa 93% 0.0mm
01/12:21am ESE 4-5 kts 20.6°c 1019.0 hPa 93% 0.0mm
01/12:01am SSE 4-5 kts 20.4°c 1019.0 hPa 94% 0.0mm
01/12:00am SSE 4-5 kts 20.4°c 1019.0 hPa 94% 0.0mm